Meteopurmerend
purmerend
Purmerend - Baaienwijk



My webcam  My webcam


waarschuwing voor Onweer Meer informatie blitzortung!


Regen radar Meer informatie rain snow radar


Bezoek onze andere website:

CandyAppleRed WebdesignWebdesign Purmerend Candy Apple Red

MeteopurmerendBlog

Template documentation
and downloads



Onweer van: 26-07-2021 13:00 tot: 21:00 waarschuwing voor: Onweer niveau: Geel info button
Enkele onweersbuien, lokaal met hagel en veel neerslag in korte tijd.Kans op blikseminslag, hagel en veel neerslag in korte tijd.Verkeer en buitenactiviteiten kunnen hinder ondervinden.Mijd open water en open gebied, schuil niet onder bomen.Volg weerberichten en waarschuwingen.

15 daagse weersverwachting Eskilstuna (SE)

  • Overzicht
  • Per uur
  • 15 dagen
  • Extra
  • Vergelijk
  • Kaarten
  • Dagkaart
  • Meer »
  • Info
  • Statistieken
  • Directe link
    Temp 6h Neerslag Wind  
 04:29     21:33    Daglengte: 17:04 Vandaag
20:00
25°
 
3
 04:32     21:31    Daglengte: 16:59 Morgen
02:00
18°
 
2
08:00
21°
 
4
14:00
28°
 
5
20:00
24°
 
4
 04:34     21:29    Daglengte: 16:55 Woensdag 28 Jul
02:00
20°
1.7 mm
2
08:00
19°
1.6 mm
2
warningclass
14:00
22°
7.5 mm
4
warningclass
20:00
22°
5.4 mm
3
 04:36     21:26    Daglengte: 16:50 Donderdag 29 Jul
02:00
17°
 
3
08:00
18°
 
3
Locatie info
Region: Södermanlands län
Latitude: 59.3724°N
Longitude: 16.5164°E
27 masl
Postcode: 632 20
Temp/Neerslag /Baro Onweer/Dauwpunt
    Temp Baro 1h Neerslag Dauwpunt Wind UV Bewolking  
 04:29     21:33    Daglengte: 17:04 Vandaag
15:00
29°
Voelt als: 28.0°
1016.7 hPa   12.0°
4
Windvlaag: 6.2 m/s
50%
16:00
29°
Voelt als: 27.9°
1016.5 hPa   11.5°
5
Windvlaag: 7.4 m/s
49%
17:00
28°
Voelt als: 27.6°
1016.2 hPa   11.9°
4
Windvlaag: 7.3 m/s
39%
18:00
28°
Voelt als: 27.1°
1016.1 hPa   11.5°
4
Windvlaag: 6.9 m/s
64%
19:00
26°
1016.0 hPa   11.7°
4
Windvlaag: 5 m/s
67%
20:00
25°
1016.0 hPa   12.4°
3
Windvlaag: 4.7 m/s
72%
21:00
23°
1016.1 hPa   13.1°
3
Windvlaag: 4.6 m/s
73%
22:00
21°
1016.2 hPa   14.1°
3
Windvlaag: 4.1 m/s
71%
23:00
20°
1016.3 hPa   14.8°
2
Windvlaag: 3.3 m/s
60%
 04:32     21:31    Daglengte: 16:59 Morgen
00:00
19°
1016.2 hPa   15.5°
2
Windvlaag: 2.9 m/s
54%
01:00
18°
1015.8 hPa   16.3°
2
Windvlaag: 2.3 m/s
11%
02:00
18°
1015.5 hPa   17.0°
2
Windvlaag: 0.5 m/s
13%
03:00
17°
1015.1 hPa   17.0°
2
Windvlaag: 0.3 m/s
12%
04:00
18°
1014.6 hPa   17.2°
3
Windvlaag: 0.2 m/s
14%
05:00
18°
1014.2 hPa   17.3°
3
Windvlaag: -1 m/s
22%
06:00
19°
1013.8 hPa   17.8°
3
Windvlaag: -0.9 m/s
71%
07:00
20°
1013.4 hPa   18.0°
4
Windvlaag: -0.6 m/s
73%
08:00
21°
1013.1 hPa   17.1°
4
Windvlaag: -0.1 m/s
57%
09:00
22°
1012.9 hPa   18.8°
4
Windvlaag: 0.2 m/s
46%
10:00
24°
1012.6 hPa   17.4°
4
Windvlaag: -0.3 m/s
49%
11:00
26°
1012.2 hPa
34%
15.8°
4
Windvlaag: -0.2 m/s
62%
12:00
27°
1011.8 hPa
15%
14.2°
5
Windvlaag: 0 m/s
50%
13:00
28°
Voelt als: 28.1°
1011.3 hPa
26%
14.0°
5
Windvlaag: 0.6 m/s
36%
14:00
28°
Voelt als: 27.8°
1010.9 hPa
67%
13.3°
5
Windvlaag: 1.6 m/s
44%
15:00
27°
1010.7 hPa
69%
18.7°
4
Windvlaag: 6.4 m/s
17%
16:00
28°
1010.6 hPa
64%
15.4°
5
Windvlaag: 6.5 m/s
80%
17:00
27°
Voelt als: 27.1°
1010.5 hPa
17%
12.6°
5
Windvlaag: 6.8 m/s
77%
18:00
27°
Voelt als: 26.5°
1010.3 hPa
15%
11.6°
5
Windvlaag: 4.9 m/s
80%
19:00
25°
1010.1 hPa
12%
12.2°
5
Windvlaag: 4.5 m/s
77%
20:00
24°
1009.9 hPa
11%
11.9°
4
Windvlaag: 2.7 m/s
82%
21:00
23°
1009.8 hPa
12%
13.0°
3
Windvlaag: 2.4 m/s
80%
22:00
22°
1009.6 hPa
20%
13.7°
3
Windvlaag: 2 m/s
82%
23:00
21°
1009.3 hPa
31%
14.5°
3
Windvlaag: 1.3 m/s
84%
 04:34     21:29    Daglengte: 16:55 Woensdag 28 Jul
00:00
20°
1009.1 hPa 0.8 mm
73%
15.2°
2
Windvlaag: 2.1 m/s
86%
01:00
20°
1008.7 hPa 0.6 mm
80%
15.7°
2
Windvlaag: 2.2 m/s
84%
02:00
20°
1008.3 hPa 0.3 mm
82%
16.4°
2
Windvlaag: 2.8 m/s
74%
03:00
19°
1007.8 hPa
82%
17.1°
2
Windvlaag: 3.2 m/s
74%
04:00
19°
1007.3 hPa
81%
17.4°
2
Windvlaag: 3.2 m/s
73%
05:00
19°
1006.9 hPa 0.4 mm
82%
17.6°
2
Windvlaag: 2.6 m/s
78%
06:00
19°
1006.7 hPa
82%
17.9°
2
Windvlaag: 2.3 m/s
83%
07:00
19°
1006.3 hPa
82%
18.2°
2
Windvlaag: 2.5 m/s
83% warningclass
08:00
19°
1006.1 hPa 1.2 mm
82%
18.2°
2
Windvlaag: 2.4 m/s
79% warningclass
09:00
20°
1006.0 hPa 1.0 mm
82%
18.3°
2
Windvlaag: 2 m/s
63% warningclass
10:00
21°
1005.7 hPa 1.2 mm
82%
18.3°
2
Windvlaag: 2.5 m/s
68% warningclass
11:00
21°
1004.2 hPa 1.8 mm
100%
17.6°
3
Windvlaag: 3 m/s
94%
12:00
21°
1004.0 hPa 1.4 mm
100%
17.1°
3
Windvlaag: 3.8 m/s
98% warningclass
13:00
22°
1003.9 hPa 1.1 mm
100%
17.8°
4
Windvlaag: 4.5 m/s
82%
14:00
22°
1003.7 hPa 1.1 mm
100%
17.5°
4
Windvlaag: 4.4 m/s
71% warningclass
15:00
22°
1003.5 hPa 0.8 mm
100%
16.3°
4
Windvlaag: 5.1 m/s
68%
16:00
22°
1003.5 hPa 1.3 mm
100%
15.9°
5
Windvlaag: 4.5 m/s
75%
17:00
22°
1003.2 hPa 1.0 mm
60%
14.2°
4
Windvlaag: 3.3 m/s
50%
18:00
22°
1002.9 hPa 1.2 mm
25%
14.1°
4
Windvlaag: 3.1 m/s
62%
19:00
22°
1002.6 hPa 1.1 mm
24%
13.5°
4
Windvlaag: 3.4 m/s
45%
20:00
22°
1002.3 hPa
25%
14.0°
3
Windvlaag: 2.7 m/s
41%
21:00
20°
1002.3 hPa
21%
15.2°
2
Windvlaag: 2.9 m/s
39%
22:00
19°
1002.3 hPa
21%
13.8°
3
Windvlaag: 3.4 m/s
45%
23:00
18°
1002.2 hPa
21%
13.9°
3
Windvlaag: 4.1 m/s
25%
 04:36     21:26    Daglengte: 16:50 Donderdag 29 Jul
00:00
18°
1002.2 hPa
21%
14.8°
3
Windvlaag: 3.7 m/s
25%
01:00
17°
1002.1 hPa
21%
15.3°
3
Windvlaag: 3.6 m/s
31%
02:00
17°
1001.8 hPa
21%
15.2°
3
Windvlaag: 3.7 m/s
37%
03:00
16°
1001.6 hPa
21%
14.9°
3
Windvlaag: 3.3 m/s
74%
04:00
16°
1001.2 hPa
21%
15.1°
3
Windvlaag: 3.5 m/s
72%
05:00
16°
1000.8 hPa
21%
15.0°
3
Windvlaag: 3.4 m/s
67%
06:00
16°
1001.0 hPa
21%
14.8°
3
Windvlaag: 2.9 m/s
67%
07:00
17°
1000.7 hPa
21%
14.7°
3
Windvlaag: 5 m/s
62%
08:00
18°
1000.6 hPa
38%
14.3°
3
Windvlaag: 5 m/s
37%
09:00
19°
997.5 hPa 1.1 mm
100%
13.4°
3
Windvlaag: 8.7 m/s
17%
10:00
19°
997.2 hPa 1.4 mm
100%
12.4°
4
Windvlaag: 8.1 m/s
95%
11:00
19°
997.0 hPa 1.4 mm
100%
11.0°
4
Windvlaag: 9.1 m/s
97%
12:00
19°
996.8 hPa 1.6 mm
100%
8.9°
5
Windvlaag: 8.7 m/s
95% warningclass
13:00
19°
996.5 hPa 1.7 mm
100%
8.5°
5
Windvlaag: 8.9 m/s
100% warningclass
14:00
19°
996.1 hPa 1.6 mm
100%
13.3°
5
Windvlaag: 8.2 m/s
65% warningclass
Temp/Neerslag /Baro Onweer/Dauwpunt
    Temp Baro Neerslag Dauwpunt Wind Bewolking  
 04:29     21:33    Daglengte: 17:04 Vandaag
17:00
28°
Voelt als: 27.6°
1016.2 hPa   11.9°
4
39%
20:00
25°
1016.0 hPa   12.4°
3
72%
23:00
20°
1016.3 hPa   14.8°
2
60%
 04:32     21:31    Daglengte: 16:59 Morgen
02:00
18°
1015.5 hPa   17.0°
2
13%
05:00
18°
1014.2 hPa   17.3°
3
22%
08:00
21°
1013.1 hPa   17.1°
4
57%
11:00
26°
1012.2 hPa   15.8°
4
62%
14:00
28°
Voelt als: 27.8°
1010.9 hPa   13.3°
5
44%
17:00
27°
Voelt als: 27.1°
1010.5 hPa   12.6°
5
77%
20:00
24°
1009.9 hPa   11.9°
4
82%
23:00
21°
1009.3 hPa   14.5°
3
84%
 04:34     21:29    Daglengte: 16:55 Woensdag 28 Jul
02:00
20°
1008.3 hPa 1.7 mm 16.4°
2
74%
05:00
19°
1006.9 hPa 0.4 mm 17.6°
2
78%
08:00
19°
1006.1 hPa 1.2 mm 18.2°
2
79% warningclass
11:00
21°
1004.2 hPa 4.0 mm 17.6°
3
94%
14:00
22°
1003.7 hPa 3.5 mm 17.5°
4
71% warningclass
17:00
22°
1003.2 hPa 3.2 mm 14.2°
4
50%
20:00
22°
1002.3 hPa 2.2 mm 14.0°
3
41%
23:00
18°
1002.2 hPa   13.9°
3
25%
 04:36     21:26    Daglengte: 16:50 Donderdag 29 Jul
02:00
17°
1001.8 hPa   15.2°
3
37%
05:00
16°
1000.8 hPa   15.0°
3
67%
08:00
18°
1000.6 hPa   14.3°
3
37%
11:00
19°
997.0 hPa 3.8 mm 11.0°
4
97%
14:00
19°
996.1 hPa 4.9 mm 13.3°
5
65% warningclass
17:00
13°
997.2 hPa 21.4 mm 12.2°
3
1%
20:00
14°
995.8 hPa 22.3 mm 12.4°
4
1%
23:00
13°
994.7 hPa 23.1 mm 11.9°
4
1%
 04:38     21:24    Daglengte: 16:46 Vrijdag 30 Jul
02:00
11°
993.3 hPa 23.2 mm 10.8°
3
1%
05:00
11°
992.2 hPa 23.2 mm 10.3°
3
1%
08:00
12°
991.1 hPa 27.1 mm 11.6°
2
1%
11:00
15°
991.2 hPa 27.7 mm 13.8°
3
1%
14:00
17°
991.9 hPa 28.7 mm 14.5°
4
1%
17:00
19°
992.4 hPa 29.2 mm 15.4°
3
1%
20:00
17°
993.1 hPa 30.2 mm 15.5°
2
1%
23:00
14°
994.8 hPa 30.4 mm 13.4°
2
0%
 04:40     21:22    Daglengte: 16:42 Zaterdag 31 Jul
02:00
12°
996.2 hPa 30.4 mm 11.6°
2
0%
05:00
11°
997.4 hPa 30.4 mm 10.4°
1
0%
08:00
15°
998.4 hPa 30.4 mm 12.0°
2
0%
11:00
20°
998.9 hPa 30.4 mm 8.5°
3
0%
14:00
22°
998.7 hPa 30.4 mm 11.2°
3
1%
17:00
22°
998.7 hPa 30.4 mm 9.9°
4
1%
20:00
19°
998.6 hPa 30.4 mm 11.5°
2
1%
23:00
14°
998.8 hPa 30.4 mm 11.2°
1
0%
 04:43     21:19    Daglengte: 16:36 Zondag 01 Aug
02:00
13°
998.5 hPa 30.4 mm 11.2°
1
0%
05:00
12°
997.4 hPa 30.5 mm 11.0°
0
1%
08:00
13°
996.6 hPa 31.2 mm 12.4°
1
1%
11:00
13°
997.0 hPa 34.1 mm 13.0°
1
1%
14:00
17°
997.3 hPa 34.3 mm 13.3°
2
1%
17:00
17°
997.6 hPa 36.5 mm 14.7°
3
1%
20:00
15°
997.7 hPa 37.5 mm 13.0°
3
1%
23:00
12°
998.4 hPa 37.5 mm 11.0°
3
1%
 04:45     21:17    Daglengte: 16:32 Maandag 02 Aug
02:00
11°
997.9 hPa 37.5 mm 10.0°
3
0%
05:00
10°
Voelt als: 8.0°
997.5 hPa 37.5 mm 9.1°
3
0%
08:00
12°
996.8 hPa 37.5 mm 9.7°
4
0%
11:00
17°
996.2 hPa 37.7 mm 11.0°
4
1%
14:00
19°
996.0 hPa 75.9 mm 11.6°
5
1%
20:00
14°
998.5 hPa 76.9 mm 8.3°
4
0%
 04:47     21:15    Daglengte: 16:28 Dinsdag 03 Aug
02:00
Voelt als: 7.2°
1000.7 hPa 76.9 mm 6.5°
2
0%
08:00
13°
1001.2 hPa 77.0 mm 8.3°
3
1%
14:00
20°
1000.5 hPa 78.7 mm 4.4°
6
0%
20:00
15°
1003.1 hPa 79.3 mm 7.5°
2
1%
 04:49     21:12    Daglengte: 16:23 Woensdag 04 Aug
02:00
11°
1005.1 hPa 79.7 mm 9.0°
3
0%
08:00
15°
1006.0 hPa 79.8 mm 11.5°
4
0%
14:00
18°
1005.1 hPa 81.0 mm 13.3°
4
1%
20:00
15°
1002.1 hPa 89.7 mm 14.1°
4
1%
 04:52     21:10    Daglengte: 16:18 Donderdag 05 Aug
02:00
14°
1000.3 hPa 95.9 mm 13.4°
4
1%
08:00
15°
997.8 hPa 96.1 mm 12.9°
4
1%
14:00
20°
1007.3 hPa 1.6 mm 10.8°
1
62%
20:00
17°
1006.8 hPa 1.4 mm 11.8°
0
71%
 04:54     21:07    Daglengte: 16:13 Vrijdag 06 Aug
02:00
13°
1006.9 hPa 1.0 mm 10.8°
0
69%
08:00
15°
1006.5 hPa 0.8 mm 11.2°
1
66%
14:00
20°
1005.9 hPa 1.9 mm 12.2°
0
65%
20:00
17°
1005.1 hPa 1.8 mm 12.7°
0
74%
 04:56     21:04    Daglengte: 16:08 Zaterdag 07 Aug
02:00
12°
1005.6 hPa 0.5 mm 10.5°
1
58%
08:00
15°
1005.8 hPa 0.1 mm 11.1°
1
57%
14:00
21°
1005.7 hPa 0.5 mm 11.0°
2
54%
20:00
17°
1005.6 hPa 1.1 mm 12.2°
1
67%
 04:59     21:02    Daglengte: 16:03 Zondag 08 Aug
02:00
13°
1006.7 hPa 0.3 mm 11.0°
1
54%
08:00
15°
1007.0 hPa 0.2 mm 11.6°
0
62%
14:00
21°
1007.2 hPa 0.9 mm 11.5°
1
65%
20:00
17°
1007.6 hPa 0.9 mm 12.2°
1
65%
 05:01     20:59    Daglengte: 15:58 Maandag 09 Aug
02:00
13°
1008.6 hPa 0.3 mm 11.1°
1
66%
08:00
15°
1008.5 hPa 0.5 mm 12.2°
0
71%
14:00
21°
1008.9 hPa 1.2 mm 12.1°
1
74%
20:00
18°
1009.2 hPa 0.6 mm 12.3°
1
75%
 05:03     20:57    Daglengte: 15:54 Dinsdag 10 Aug
02:00
13°
1010.1 hPa 0.2 mm 10.7°
1
61%
08:00
16°
1010.3 hPa 0.2 mm 11.5°
1
65%
14:00
21°
1010.1 hPa 0.8 mm 11.5°
1
58%
  CAPE Lifted Index Hail Supercell Tornado SRH 3km CL BTM PRES CL TOP PRES Swiss DWD icon SMHI TS
 04:29     21:33    Daglengte: 17:04 Vandaag
15:00 20 J/kg -0.2 K 0 % 0 % 0 % 0 m²/s² 0 0 2.71 3
16:00 0 J/kg 1.0 K 0 % 0 % 0 % 0 m²/s² 0 0 4.81 3
17:00 0 J/kg 1.1 K 0 % 0 % 0 % 0 m²/s² 0 0 4.52 3
18:00 0 J/kg 2.2 K 0 % 0 % 0 % 0 m²/s² 0 0 5.62 3
19:00 0 J/kg 1.9 K 0 % 0 % 0 % 0 m²/s² 0 0 4.63 3
20:00 0 J/kg 1.5 K 0 % 0 % 0 % 0 m²/s² 0 0 4.02 3
21:00 0 J/kg 1.9 K 0 % 0 % 0 % 0 m²/s² 0 0 4.48 3
22:00 0 J/kg 2.2 K 0 % 0 % 0 % 0 m²/s² 0 0 5.11 3
23:00 0 J/kg 1.9 K 0 % 0 % 0 % 0 m²/s² 0 0 5.41 3
 04:32     21:31    Daglengte: 16:59 Morgen
00:00 0 J/kg 2.0 K 0 % 0 % 0 % 0 m²/s² 0 0 6.11 3
01:00 4 J/kg 1.6 K 0 % 0 % 0 % 0 m²/s² 0 0 5.92 2
02:00 0 J/kg 1.3 K 0 % 0 % 0 % 0 m²/s² 0 0 5.29 1
03:00 21 J/kg -0.4 K 0 % 0 % 0 % 0 m²/s² 0 0 2.03 1
04:00 0 J/kg -0.2 K 0 % 0 % 0 % 0 m²/s² 0 0 2.47 1
05:00 0 J/kg -0.3 K 0 % 0 % 0 % 0 m²/s² 0 0 1.05 3
06:00 0 J/kg -0.7 K 0 % 0 % 0 % 0 m²/s² 0 0 0.11 3
07:00 145 J/kg -1.1 K 0 % 0 % 0 % 0 m²/s² 0 0 -0.29 3
08:00 513 J/kg -2.3 K 0 % 0 % 0 % 0 m²/s² 0 0 -1.49 3
09:00 889 J/kg -3.2 K 0 % 0 % 0 % 0 m²/s² 0 0 -2.15 3
10:00 1125 J/kg -3.6 K 0 % 0 % 0 % 0 m²/s² 0 0 -2.19 3
11:00 1124 J/kg -3.6 K 0 % 0 % 0 % 0 m²/s² 0 0 -2.01 61
12:00 497 J/kg -1.9 K 0 % 0 % 0 % 0 m²/s² 0 0 -0.7 3
13:00 329 J/kg -1.5 K 0 % 0 % 0 % 0 m²/s² 0 0 -0.45 3
14:00 182 J/kg -0.8 K 0 % 0 % 0 % 0 m²/s² 0 0 0.22 3
15:00 159 J/kg -0.4 K 0 % 0 % 0 % 0 m²/s² 0 0 0.65 2
16:00 161 J/kg -0.4 K 0 % 0 % 0 % 0 m²/s² 0 0 0.92 3
17:00 216 J/kg -1.0 K 0 % 0 % 0 % 0 m²/s² 0 0 0.74 3
18:00 155 J/kg -0.8 K 0 % 0 % 0 % 0 m²/s² 0 0 1.24 3
19:00 114 J/kg -0.6 K 0 % 0 % 0 % 0 m²/s² 0 0 2.04 3
20:00 205 J/kg -0.6 K 0 % 0 % 0 % 0 m²/s² 0 0 1.59 3
21:00 191 J/kg -0.7 K 0 % 0 % 0 % 0 m²/s² 0 0 1.16 3
22:00 141 J/kg -0.3 K 0 % 0 % 0 % 0 m²/s² 0 0 1.26 3
23:00 46 J/kg -0.2 K 0 % 0 % 0 % 0 m²/s² 0 0 1.3 3
 04:34     21:29    Daglengte: 16:55 Woensdag 28 Jul
00:00 60 J/kg -0.4 K 0 % 0 % 0 % 0 m²/s² 0 0 0.38 61
01:00 69 J/kg -0.6 K 0 % 0 % 0 % 0 m²/s² 0 0 -0.39 61
02:00 5 J/kg -0.5 K 0 % 0 % 0 % 0 m²/s² 0 0 -0.5 61
03:00 0 J/kg -0.9 K 0 % 0 % 0 % 0 m²/s² 0 0 -0.9 61
04:00 0 J/kg -0.5 K 0 % 0 % 0 % 0 m²/s² 0 0 -0.29 61
05:00 0 J/kg -0.6 K 0 % 0 % 0 % 0 m²/s² 0 0 -0.48 80
06:00 0 J/kg -0.4 K 0 % 0 % 0 % 0 m²/s² 0 0 -0.13 3
07:00 0 J/kg -0.3 K 0 % 0 % 0 % 0 m²/s² 0 0 -0.21 95
08:00 5 J/kg -0.1 K 0 % 0 % 0 % 0 m²/s² 0 0 0.17 95
09:00 6 J/kg -0.2 K 0 % 0 % 0 % 0 m²/s² 0 0 0.01 95
10:00 135 J/kg -0.7 K 0 % 0 % 0 % 0 m²/s² 0 0 -0.52 95
11:00 195 J/kg -0.9 K 0 % 0 % 0 % 0 m²/s² 0 0 -0.81 80
12:00 276 J/kg -1.6 K 0 % 0 % 0 % 0 m²/s² 0 0 -1.21 95
13:00 387 J/kg -1.8 K 0 % 0 % 0 % 0 m²/s² 0 0 -1.62 80
14:00 629 J/kg -2.5 K 0 % 0 % 0 % 0 m²/s² 0 0 -2.23 80
15:00 497 J/kg -2.0 K 0 % 0 % 0 % 0 m²/s² 0 0 -0.83 80
16:00 806 J/kg -2.9 K 0 % 0 % 0 % 0 m²/s² 0 0 -0.92 3
17:00 559 J/kg -2.0 K 0 % 0 % 0 % 0 m²/s² 0 0 0.16 2
18:00 425 J/kg -1.9 K 0 % 0 % 0 % 0 m²/s² 0 0 0.86 3
19:00 186 J/kg -1.3 K 0 % 0 % 0 % 0 m²/s² 0 0 2.51 1
20:00 154 J/kg -1.0 K 0 % 0 % 0 % 0 m²/s² 0 0 2.72 2
21:00 35 J/kg -0.2 K 0 % 0 % 0 % 0 m²/s² 0 0 2.8 1
22:00 0 J/kg -0.3 K 0 % 0 % 0 % 0 m²/s² 0 0 1.41 2
23:00 0 J/kg 1.1 K 0 % 0 % 0 % 0 m²/s² 0 0 2.42 1
 04:36     21:26    Daglengte: 16:50 Donderdag 29 Jul
00:00 3 J/kg 0.0 K 0 % 0 % 0 % 0 m²/s² 0 0 1.11 2
01:00 122 J/kg -0.9 K 0 % 0 % 0 % 0 m²/s² 0 0 0.36 2
02:00 32 J/kg -0.1 K 0 % 0 % 0 % 0 m²/s² 0 0 0.95 2
03:00 47 J/kg 0.1 K 0 % 0 % 0 % 0 m²/s² 0 0 0.7 3
04:00 57 J/kg 0.2 K 0 % 0 % 0 % 0 m²/s² 0 0 0.68 2
05:00 1 J/kg 0.8 K 0 % 0 % 0 % 0 m²/s² 0 0 1.94 2
06:00 0 J/kg 0.8 K 0 % 0 % 0 % 0 m²/s² 0 0 1.94 2
07:00 79 J/kg -0.2 K 0 % 0 % 0 % 0 m²/s² 0 0 0.94 2
08:00 273 J/kg -1.2 K 0 % 0 % 0 % 0 m²/s² 0 0 0.87 3
09:00 436 J/kg -2.1 K 0 % 0 % 0 % 0 m²/s² 0 0 -0.69 80
10:00 489 J/kg -2.5 K 0 % 0 % 0 % 0 m²/s² 0 0 -0.43 80
11:00 397 J/kg -1.8 K 0 % 0 % 0 % 0 m²/s² 0 0 0.6 80
12:00 237 J/kg -0.5 K 0 % 0 % 0 % 0 m²/s² 0 0 1.3 95
13:00 291 J/kg -0.7 K 0 % 0 % 0 % 0 m²/s² 0 0 1.1 95
14:00 346 J/kg -1.1 K 0 % 0 % 0 % 0 m²/s² 0 0 1.15 95
Temp Baro Wind Neerslag
  EWN Forecast EWN WRFDA DWD ICON FMI HIRLAM MET Norway GFS
 04:29     21:33    Daglengte: 17:04 Vandaag
17:00 28.2° 1016.2 hPa 4.4 m/s 0.0 mm 26.8° 1015.8 hPa 4.8 m/s 0.0 mm 28.6° 1016.2 hPa 3.8 m/s -2.0 mm 27.6° 1016.6 hPa 4.4 m/s 0.0 mm 25.6° 1016.6 hPa 3.5 m/s
20:00 25.0° 1016.0 hPa 3.5 m/s 0.0 mm 23.6° 1015.6 hPa 3.4 m/s 0.0 mm 25.1° 1015.7 hPa 2.8 m/s 0.0 mm 24.8° 1016.4 hPa 3.3 m/s 0.0 mm 22.2° 1016.1 hPa 2.9 m/s
23:00 20.1° 1016.3 hPa 2.5 m/s 0.0 mm 17.9° 1015.3 hPa 3.0 m/s 0.0 mm 19.8° 1016.3 hPa 2.2 m/s 0.0 mm 19.8° 1016.8 hPa 2.2 m/s 0.0 mm 17.2° 1016.4 hPa 2.4 m/s
 04:32     21:31    Daglengte: 16:59 Morgen
02:00 17.7° 1015.5 hPa 2.2 m/s 0.0 mm 16.8° 1014.3 hPa 3.3 m/s 0.0 mm 17.3° 1015.5 hPa 1.7 m/s 0.0 mm 16.8° 1016.1 hPa 1.8 m/s 0.0 mm 15.9° 1015.5 hPa 2.4 m/s
05:00 17.8° 1014.2 hPa 2.7 m/s 0.0 mm 17.5° 1013.0 hPa 3.3 m/s 0.0 mm 17.5° 1014.1 hPa 2.3 m/s 0.0 mm 17.0° 1015.2 hPa 2.3 m/s 0.0 mm 15.3° 1014.5 hPa 2.4 m/s
08:00 21.1° 1013.1 hPa 4.0 m/s 0.0 mm 22.2° 1011.9 hPa 3.8 m/s 0.0 mm 21.8° 1013.0 hPa 3.9 m/s 0.0 mm 20.4° 1014.1 hPa 3.3 m/s 0.0 mm 19.7° 1013.4 hPa 2.8 m/s
11:00 25.7° 1012.2 hPa 4.4 m/s 0.0 mm 27.0° 1010.9 hPa 5.1 m/s 0.0 mm 24.2° 1012.2 hPa 4.2 m/s 0.1 mm 26.1° 1013.1 hPa 3.7 m/s 0.0 mm 26.5° 1012.1 hPa 4.7 m/s
14:00 28.2° 1010.9 hPa 5.1 m/s 0.0 mm 28.5° 1009.9 hPa 6.5 m/s 0.8 mm 28.9° 1010.6 hPa 4.7 m/s 0.1 mm 28.4° 1012.0 hPa 4.9 m/s 0.0 mm 27.4° 1010.8 hPa 5.2 m/s
17:00 27.2° 1010.5 hPa 4.6 m/s 0.0 mm 28.1° 1008.9 hPa 5.5 m/s 1.0 mm 27.9° 1009.4 hPa 3.9 m/s 0.0 mm 28.5° 1010.9 hPa 5.2 m/s 0.0 mm 24.7° 1010.5 hPa 3.5 m/s
20:00 24.3° 1009.9 hPa 4.0 m/s 0.0 mm 25.1° 1008.0 hPa 3.6 m/s 1.0 mm 25.0° 1009.1 hPa 3.3 m/s 0.0 mm 25.8° 1010.2 hPa 3.9 m/s 0.0 mm 21.8° 1009.9 hPa 3.3 m/s
23:00 20.8° 1009.3 hPa 2.7 m/s 0.0 mm 19.9° 1007.1 hPa 2.6 m/s 1.0 mm 21.2° 1008.4 hPa 1.4 m/s 0.0 mm 21.8° 1010.0 hPa 2.6 m/s 0.0 mm 18.5° 1010.1 hPa 2.6 m/s
 04:34     21:29    Daglengte: 16:55 Woensdag 28 Jul
02:00 19.5° 1008.3 hPa 2.1 m/s 1.7 mm 19.7° 1005.7 hPa 2.6 m/s 1.0 mm 19.6° 1007.4 hPa 1.0 m/s 1.5 mm 19.7° 1008.9 hPa 1.8 m/s 0.0 mm 17.6° 1008.7 hPa 2.5 m/s
05:00 18.6° 1006.9 hPa 2.3 m/s 0.4 mm 18.8° 1003.7 hPa 2.6 m/s 1.2 mm 18.8° 1005.9 hPa 2.1 m/s 0.9 mm 18.5° 1007.5 hPa 2.0 m/s 0.0 mm 17.0° 1007.1 hPa 1.3 m/s
08:00 19.2° 1006.1 hPa 1.7 m/s 1.2 mm 18.6° 1001.8 hPa 2.2 m/s 5.1 mm 18.9° 1004.6 hPa 1.6 m/s 3.0 mm 20.1° 1006.9 hPa 1.2 m/s 0.0 mm 18.7° 1006.5 hPa 0.3 m/s
11:00 20.6° 1004.2 hPa 2.6 m/s 4.0 mm 21.2° 1001.1 hPa 4.3 m/s 8.0 mm 20.2° 1004.1 hPa 2.7 m/s 2.4 mm 20.9° 1005.6 hPa 2.6 m/s
14:00 21.8° 1003.7 hPa 4.5 m/s 3.5 mm 22.7° 1001.0 hPa 6.6 m/s 8.2 mm 20.6° 1003.5 hPa 4.6 m/s 2.8 mm 22.6° 1005.0 hPa 3.9 m/s
17:00 22.2° 1003.2 hPa 4.2 m/s 3.2 mm 24.6° 1001.1 hPa 5.7 m/s 8.3 mm 21.7° 1003.0 hPa 4.5 m/s 0.3 mm 24.9° 1003.7 hPa 2.4 m/s
20:00 21.5° 1002.3 hPa 2.8 m/s 2.2 mm 22.6° 1000.8 hPa 3.8 m/s 8.3 mm 21.5° 1001.9 hPa 3.1 m/s 0.0 mm 21.7° 1003.3 hPa 2.7 m/s
23:00 18.3° 1002.2 hPa 2.9 m/s 0.0 mm 18.2° 1001.2 hPa 3.6 m/s 8.3 mm 18.1° 1001.6 hPa 3.0 m/s 0.0 mm 17.7° 1003.4 hPa 2.4 m/s
 04:36     21:26    Daglengte: 16:50 Donderdag 29 Jul
02:00 16.7° 1001.8 hPa 2.9 m/s 0.0 mm 16.4° 1001.7 hPa 3.2 m/s 8.3 mm 16.4° 1000.3 hPa 3.0 m/s 0.0 mm 17.5° 1002.6 hPa 2.2 m/s
05:00 15.8° 1000.8 hPa 2.5 m/s 0.0 mm 15.2° 1000.8 hPa 2.9 m/s 8.3 mm 15.5° 998.8 hPa 2.6 m/s 0.0 mm 16.5° 1002.1 hPa 2.5 m/s
08:00 18.3° 1000.6 hPa 3.1 m/s 0.0 mm 19.1° 1001.0 hPa 3.9 m/s 8.3 mm 17.9° 997.3 hPa 3.2 m/s 0.0 mm 19.1° 1000.9 hPa 3.6 m/s
11:00 19.1° 997.0 hPa 4.3 m/s 3.8 mm 22.4° 1000.3 hPa 5.7 m/s 8.3 mm 18.2° 996.2 hPa 3.9 m/s 1.6 mm 21.7° 1000.0 hPa 3.9 m/s
14:00 19.0° 996.1 hPa 4.6 m/s 4.9 mm 20.7° 999.5 hPa 4.4 m/s 8.7 mm 18.6° 995.3 hPa 4.7 m/s 3.0 mm 22.5° 998.4 hPa 4.5 m/s
17:00 13.3° 997.2 hPa 3.3 m/s 21.4 mm 13.3° 997.2 hPa 3.3 m/s 21.4 mm
20:00 14.4° 995.8 hPa 3.9 m/s 22.3 mm 14.4° 995.8 hPa 3.9 m/s 22.3 mm
23:00 12.7° 994.7 hPa 3.9 m/s 23.1 mm 12.7° 994.7 hPa 3.9 m/s 23.1 mm
 04:38     21:24    Daglengte: 16:46 Vrijdag 30 Jul
02:00 11.1° 993.3 hPa 3.2 m/s 23.2 mm 11.1° 993.3 hPa 3.2 m/s 23.2 mm
05:00 10.6° 992.2 hPa 2.9 m/s 23.2 mm 10.6° 992.2 hPa 2.9 m/s 23.2 mm
08:00 12.0° 991.1 hPa 2.1 m/s 27.1 mm 12.0° 991.1 hPa 2.1 m/s 27.1 mm
11:00 14.9° 991.2 hPa 3.4 m/s 27.7 mm 14.9° 991.2 hPa 3.4 m/s 27.7 mm
14:00 16.7° 991.9 hPa 3.5 m/s 28.7 mm 16.7° 991.9 hPa 3.5 m/s 28.7 mm
17:00 19.3° 992.4 hPa 3.0 m/s 29.2 mm 19.3° 992.4 hPa 3.0 m/s 29.2 mm
20:00 17.5° 993.1 hPa 2.3 m/s 30.2 mm 17.5° 993.1 hPa 2.3 m/s 30.2 mm
23:00 14.1° 994.8 hPa 1.9 m/s 30.4 mm 14.1° 994.8 hPa 1.9 m/s 30.4 mm
 04:40     21:22    Daglengte: 16:42 Zaterdag 31 Jul
02:00 12.2° 996.2 hPa 1.8 m/s 30.4 mm 12.2° 996.2 hPa 1.8 m/s 30.4 mm
05:00 11.0° 997.4 hPa 1.4 m/s 30.4 mm 11.0° 997.4 hPa 1.4 m/s 30.4 mm
08:00 14.8° 998.4 hPa 2.0 m/s 30.4 mm 14.8° 998.4 hPa 2.0 m/s 30.4 mm
11:00 19.5° 998.9 hPa 2.7 m/s 30.4 mm 19.5° 998.9 hPa 2.7 m/s 30.4 mm
14:00 22.4° 998.7 hPa 3.0 m/s 30.4 mm 22.4° 998.7 hPa 3.0 m/s 30.4 mm
17:00 22.4° 998.7 hPa 3.6 m/s 30.4 mm 22.4° 998.7 hPa 3.6 m/s 30.4 mm
20:00 19.1° 998.6 hPa 1.9 m/s 30.4 mm 19.1° 998.6 hPa 1.9 m/s 30.4 mm
23:00 14.2° 998.8 hPa 1.2 m/s 30.4 mm 14.2° 998.8 hPa 1.2 m/s 30.4 mm
 04:43     21:19    Daglengte: 16:36 Zondag 01 Aug
02:00 12.6° 998.5 hPa 0.6 m/s 30.4 mm 12.6° 998.5 hPa 0.6 m/s 30.4 mm
05:00 12.3° 997.4 hPa 0.2 m/s 30.5 mm 12.3° 997.4 hPa 0.2 m/s 30.5 mm
08:00 13.2° 996.6 hPa 1.0 m/s 31.2 mm 13.2° 996.6 hPa 1.0 m/s 31.2 mm
11:00 13.3° 997.0 hPa 1.3 m/s 34.1 mm 13.3° 997.0 hPa 1.3 m/s 34.1 mm
14:00 16.7° 997.3 hPa 2.5 m/s 34.3 mm 16.7° 997.3 hPa 2.5 m/s 34.3 mm
17:00 17.3° 997.6 hPa 3.1 m/s 36.5 mm 17.3° 997.6 hPa 3.1 m/s 36.5 mm
20:00 15.1° 997.7 hPa 2.6 m/s 37.5 mm 15.1° 997.7 hPa 2.6 m/s 37.5 mm
23:00 11.8° 998.4 hPa 3.0 m/s 37.5 mm 11.8° 998.4 hPa 3.0 m/s 37.5 mm
 04:45     21:17    Daglengte: 16:32 Maandag 02 Aug
02:00 10.6° 997.9 hPa 3.0 m/s 37.5 mm 10.6° 997.9 hPa 3.0 m/s 37.5 mm
05:00 9.7° 997.5 hPa 3.2 m/s 37.5 mm 9.7° 997.5 hPa 3.2 m/s 37.5 mm
08:00 12.3° 996.8 hPa 3.6 m/s 37.5 mm 12.3° 996.8 hPa 3.6 m/s 37.5 mm
11:00 17.1° 996.2 hPa 4.1 m/s 37.7 mm 17.1° 996.2 hPa 4.1 m/s 37.7 mm
14:00 19.0° 996.0 hPa 4.8 m/s 38.2 mm 19.0° 996.0 hPa 4.8 m/s 38.2 mm
20:00 14.0° 998.5 hPa 4.2 m/s 38.5 mm 14.0° 998.5 hPa 4.2 m/s 38.5 mm
 04:47     21:15    Daglengte: 16:28 Dinsdag 03 Aug
02:00 8.1° 1000.7 hPa 1.8 m/s 38.5 mm 8.1° 1000.7 hPa 1.8 m/s 38.5 mm
08:00 12.8° 1001.2 hPa 2.6 m/s 38.5 mm 12.8° 1001.2 hPa 2.6 m/s 38.5 mm
14:00 19.6° 1000.5 hPa 6.5 m/s 39.5 mm 19.6° 1000.5 hPa 6.5 m/s 39.5 mm
20:00 15.4° 1003.1 hPa 2.2 m/s 39.7 mm 15.4° 1003.1 hPa 2.2 m/s 39.7 mm
 04:49     21:12    Daglengte: 16:23 Woensdag 04 Aug
02:00 10.9° 1005.1 hPa 3.1 m/s 39.9 mm 10.9° 1005.1 hPa 3.1 m/s 39.9 mm
08:00 14.9° 1006.0 hPa 4.2 m/s 39.9 mm 14.9° 1006.0 hPa 4.2 m/s 39.9 mm
14:00 18.4° 1005.1 hPa 4.3 m/s 40.9 mm 18.4° 1005.1 hPa 4.3 m/s 40.9 mm
20:00 14.8° 1002.1 hPa 4.3 m/s 47.0 mm 14.8° 1002.1 hPa 4.3 m/s 47.0 mm
 04:52     21:10    Daglengte: 16:18 Donderdag 05 Aug
02:00 14.2° 1000.3 hPa 4.1 m/s 48.0 mm 14.2° 1000.3 hPa 4.1 m/s 48.0 mm
08:00 15.4° 997.8 hPa 4.2 m/s 48.1 mm 15.4° 997.8 hPa 4.2 m/s 48.1 mm
14:00 20.1° 1007.3 hPa 0.7 m/s 1.6 mm
20:00 16.8° 1006.8 hPa 0.3 m/s 1.4 mm
 04:54     21:07    Daglengte: 16:13 Vrijdag 06 Aug
02:00 12.9° 1006.9 hPa 0.3 m/s 1.0 mm
08:00 14.8° 1006.5 hPa 0.8 m/s 0.8 mm
14:00 20.1° 1005.9 hPa 0.2 m/s 1.9 mm
20:00 16.7° 1005.1 hPa 0.4 m/s 1.8 mm
 04:56     21:04    Daglengte: 16:08 Zaterdag 07 Aug
02:00 12.3° 1005.6 hPa 0.8 m/s 0.5 mm
08:00 14.7° 1005.8 hPa 1.1 m/s 0.1 mm
14:00 21.2° 1005.7 hPa 1.6 m/s 0.5 mm
20:00 17.4° 1005.6 hPa 1.3 m/s 1.1 mm
 04:59     21:02    Daglengte: 16:03 Zondag 08 Aug
02:00 12.8° 1006.7 hPa 1.0 m/s 0.3 mm
08:00 14.8° 1007.0 hPa 0.5 m/s 0.2 mm
14:00 20.8° 1007.2 hPa 1.2 m/s 0.9 mm
20:00 17.4° 1007.6 hPa 0.8 m/s 0.9 mm
 05:01     20:59    Daglengte: 15:58 Maandag 09 Aug
02:00 13.2° 1008.6 hPa 0.5 m/s 0.3 mm
08:00 15.4° 1008.5 hPa 0.5 m/s 0.5 mm
14:00 20.6° 1008.9 hPa 1.4 m/s 1.2 mm
20:00 17.6° 1009.2 hPa 0.8 m/s 0.6 mm
 05:03     20:57    Daglengte: 15:54 Dinsdag 10 Aug
02:00 13.2° 1010.1 hPa 0.9 m/s 0.2 mm
08:00 15.7° 1010.3 hPa 0.8 m/s 0.2 mm
14:00 21.4° 1010.1 hPa 0.9 m/s 0.8 mm
FMI Hirlam - 7.5 km EWN WRFDA - 12 km DWD ICON - 7 km GFS - 25 km Basiskaart






























































Updatetijd (Europe/Amsterdam) Resolutie Lengte Stap
FMI Hirlam 14:00, 20:00, 02:00, 08:00 7.5 km 49h 1h
EWN WRFDA 10:30, 16:30, 22:30, 04:30 12 km 73h 1h
DWD ICON 11:45, 17:45, 23:45, 05:45 7 km 75h 1h
GFS 14:15, 20:15, 02:15, 08:15 25 km 237h 3h
30+ mm
25-30 mm
20-25 mm
15-20 mm
10-15 mm
6-10 mm
4-6 mm
2-4 mm
1-2 mm
0.5-1 mm
0.2-0.5 mm
0.1-0.2 mm
30+ mm
25-30 mm
20-25 mm
15-20 mm
10-15 mm
6-10 mm
4-6 mm
2-4 mm
1-2 mm
0.5-1 mm
0.2-0.5 mm
0.1-0.2 mm
Sneeuwval
Natte sneeuw
Hagel
Vorst
30+ mm
25-30 mm
20-25 mm
15-20 mm
10-15 mm
6-10 mm
4-6 mm
2-4 mm
1-2 mm
0.5-1 mm
0.2-0.5 mm
0.1-0.2 mm